Weather History for Adana Incirlik AFB, Turkey

Change the Weather History Date:

Friday, September 21, 2012

  Actual Average Record
Temperature  
Mean Temperature 77 °F -  
Max Temperature 88 °F 86 °F 104 °F (2010)
Min Temperature 66 °F 63 °F 59 °F (2014)
Cooling Degree Days 12    
Growing Degree Days 27 (Base 50)    
Moisture  
Dew Point 66 °F    
Average Humidity 67    
Maximum Humidity 94    
Minimum Humidity 34    
Precipitation  
Precipitation 0.00 in - - ()
Sea Level Pressure  
Sea Level Pressure 29.87 in    
Wind  
Wind Speed 6 mph ()    
Max Wind Speed 16 mph    
Max Gust Speed -    
Visibility 6.3 miles    
Events      
Averages and records for this station are not official NWS values.
T = Trace of Precipitation, MM = Missing Value Source: Averaged Metar Reports

Daily Weather History Graph

Daily Weather History Graph

Search for Another Location

Airport:

Trip Planner

Search our weather history database for the weather conditions in past years. The results will help you decide how hot, cold, wet, or windy it might be!

Date:

Astronomy

Sep. 21, 2012 Rise Set
Actual Time 6:25 AM EEST 6:36 PM EEST
Civil Twilight 5:59 AM EEST 7:02 PM EEST
Nautical Twilight 5:29 AM EEST 7:32 PM EEST
Astronomical Twilight 4:58 AM EEST 8:03 PM EEST
Moon 12:16 PM EEST (9/21) 10:24 PM EEST (9/21)
Length of Visible Light 13h 02m
Length of Day
12h 11m
Waxing Crescent, 34% of the Moon is Illuminated
Sep 21
Waxing Crescent
Sep 22
First Quarter
Sep 30
Full
Oct 8
Last Quarter
Oct 15
New

Hourly Weather History & Observations

Time (EEST) Temp. Heat Index Dew Point Humidity Pressure Visibility Wind Dir Wind Speed Gust Speed Precip Events Conditions
12:20 AM 71.6 °F - 64.4 °F 78% 29.89 in 6.2 mi ENE 5.8 mph - N/A   Scattered Clouds
12:50 AM 71.6 °F - 64.4 °F 78% 29.89 in 6.2 mi NE 4.6 mph - N/A   Scattered Clouds
1:20 AM 69.8 °F - 64.4 °F 83% 29.89 in 6.2 mi NE 5.8 mph - N/A   Scattered Clouds
1:50 AM 69.8 °F - 64.4 °F 83% 29.89 in 6.2 mi ENE 4.6 mph - N/A   Scattered Clouds
2:20 AM 69.8 °F - 64.4 °F 83% 29.89 in 6.2 mi NE 4.6 mph - N/A   Scattered Clouds
2:50 AM 69.8 °F - 64.4 °F 83% 29.89 in 6.2 mi NE 4.6 mph - N/A   Scattered Clouds
3:00 AM 70 °F - 65 °F 79% 29.88 in 6 mi NE 4.6 mph - -   Partly Cloudy
3:20 AM 68.0 °F - 64.4 °F 88% 29.89 in 6.2 mi NE 4.6 mph - N/A   Scattered Clouds
3:50 AM 69.8 °F - 64.4 °F 83% 29.89 in 6.2 mi NNE 5.8 mph - N/A   Scattered Clouds
4:20 AM 68.0 °F - 64.4 °F 88% 29.89 in 6.2 mi ENE 6.9 mph - N/A   Scattered Clouds
4:50 AM 68.0 °F - 64.4 °F 88% 29.89 in 6.2 mi NE 4.6 mph - N/A   Scattered Clouds
5:20 AM 68.0 °F - 64.4 °F 88% 29.89 in 6.2 mi NE 5.8 mph - N/A   Scattered Clouds
5:50 AM 68.0 °F - 66.2 °F 94% 29.89 in 6.2 mi NE 4.6 mph - N/A   Scattered Clouds
6:20 AM 68.0 °F - 64.4 °F 88% 29.89 in 6.2 mi NNE 5.8 mph - N/A   Scattered Clouds
6:50 AM 68.0 °F - 66.2 °F 94% 29.89 in 6.2 mi NNE 5.8 mph - N/A   Scattered Clouds
7:20 AM 71.6 °F - 66.2 °F 83% 29.89 in 6.2 mi NNE 4.6 mph - N/A   Scattered Clouds
7:50 AM 75.2 °F - 66.2 °F 73% 29.89 in 6.2 mi NE 4.6 mph - N/A   Scattered Clouds
8:20 AM 77.0 °F - 68.0 °F 74% 29.89 in 6.2 mi NE 2.3 mph - N/A   Scattered Clouds
8:50 AM 78.8 °F - 68.0 °F 69% 29.89 in 6.2 mi ESE 3.5 mph - N/A   Scattered Clouds
9:00 AM 80 °F - 68 °F 58% 29.88 in 6 mi ESE 3.5 mph - -   Partly Cloudy
9:20 AM 80.6 °F 83.2 °F 68.0 °F 65% 29.89 in 6.2 mi SSW 2.3 mph - N/A   Scattered Clouds
9:50 AM 80.6 °F 83.2 °F 68.0 °F 65% 29.89 in 6.2 mi SW 3.5 mph - N/A   Scattered Clouds
10:20 AM 84.2 °F 86.6 °F 66.2 °F 55% 29.89 in 6.2 mi South 9.2 mph - N/A   Scattered Clouds
10:50 AM 82.4 °F 84.6 °F 66.2 °F 58% 29.89 in 6.2 mi SSE 5.8 mph - N/A   Scattered Clouds
11:20 AM 84.2 °F 86.6 °F 66.2 °F 55% 29.89 in 6.2 mi ESE 2.3 mph - N/A   Scattered Clouds
11:50 AM 86.0 °F 88.2 °F 66.2 °F 51% 29.89 in 6.2 mi South 6.9 mph - N/A   Scattered Clouds
12:20 PM 87.8 °F 90.4 °F 66.2 °F 49% 29.86 in 6.2 mi South 8.1 mph - N/A   Scattered Clouds
12:50 PM 87.8 °F 89.4 °F 64.4 °F 46% 29.86 in 6.2 mi South 8.1 mph - N/A   Mostly Cloudy
1:20 PM 87.8 °F 89.4 °F 64.4 °F 46% 29.86 in 6.2 mi SSW 9.2 mph - N/A   Scattered Clouds
1:50 PM 87.8 °F 88.5 °F 62.6 °F 43% 29.86 in 6.2 mi South 9.2 mph - N/A   Scattered Clouds
2:20 PM 87.8 °F 88.5 °F 62.6 °F 43% 29.86 in 6.2 mi South 13.8 mph - N/A   Scattered Clouds
2:50 PM 87.8 °F 89.4 °F 64.4 °F 46% 29.83 in 6.2 mi South 11.5 mph - N/A   Scattered Clouds
3:00 PM 89 °F - 64 °F 34% 29.84 in 6 mi South 11.5 mph - -   Partly Cloudy
3:20 PM 89.6 °F 90.1 °F 62.6 °F 40% 29.83 in 6.2 mi South 10.4 mph - N/A   Scattered Clouds
3:50 PM 87.8 °F 89.4 °F 64.4 °F 46% 29.83 in 6.2 mi SSW 16.1 mph - N/A   Scattered Clouds
4:20 PM 87.8 °F 89.4 °F 64.4 °F 46% 29.86 in 6.2 mi WSW 13.8 mph - N/A   Scattered Clouds
4:50 PM 86.0 °F 87.3 °F 64.4 °F 48% 29.83 in 6.2 mi SW 13.8 mph - N/A   Scattered Clouds
5:20 PM 84.2 °F 86.6 °F 66.2 °F 55% 29.83 in 6.2 mi SSW 15.0 mph - N/A   Scattered Clouds
5:50 PM 84.2 °F 86.6 °F 66.2 °F 55% 29.83 in 6.2 mi SSW 15.0 mph - N/A   Scattered Clouds
6:20 PM 82.4 °F 84.6 °F 66.2 °F 58% 29.83 in 6.2 mi SSW 15.0 mph - N/A   Scattered Clouds
6:50 PM 80.6 °F 83.2 °F 68.0 °F 65% 29.86 in 6.2 mi SW 12.7 mph - N/A   Scattered Clouds
7:20 PM 78.8 °F - 66.2 °F 65% 29.86 in 6.2 mi SW 10.4 mph - N/A   Scattered Clouds
7:50 PM 78.8 °F - 66.2 °F 65% 29.86 in 6.2 mi SW 8.1 mph - N/A   Scattered Clouds
8:20 PM 77.0 °F - 66.2 °F 69% 29.86 in 6.2 mi South 8.1 mph - N/A   Scattered Clouds
8:50 PM 77.0 °F - 66.2 °F 69% 29.89 in 6.2 mi SE 3.5 mph - N/A   Scattered Clouds
9:00 PM 77 °F - 67 °F 64% 29.88 in 12 mi SE 3.5 mph - -   Partly Cloudy
9:20 PM 77.0 °F - 68.0 °F 74% 29.89 in 6.2 mi East 3.5 mph - N/A   Scattered Clouds
9:50 PM 77.0 °F - 68.0 °F 74% 29.89 in 6.2 mi ESE 3.5 mph - N/A   Scattered Clouds
10:20 PM 75.2 °F - 66.2 °F 73% 29.89 in 6.2 mi ESE 2.3 mph - N/A   Scattered Clouds
10:50 PM 75.2 °F - 68.0 °F 78% 29.89 in 6.2 mi East 4.6 mph - N/A   Scattered Clouds
11:20 PM 75.2 °F - 66.2 °F 73% 29.89 in 6.2 mi NNE 4.6 mph - N/A   Scattered Clouds
11:50 PM 73.4 °F - 66.2 °F 78% 29.89 in 6.2 mi North 4.6 mph - N/A   Scattered Clouds